Regional Weather Roundup
Issued by NWS Midland/Odessa, TX

Home | Current Version | Previous Version | Text Only | Print | Product List | Glossary On
Versions: 1 2 3 4 5 6 7 8 9 10 11 12 13 14 15 16 17 18 19 20 21 22 23 24 25 26 27 28 29 30 31 32 33 34 35 36 37 38 39 40 41 42 43 44 45 46 47 48 49 50
000
ASUS44 KMAF 240410
RWRMAF
MIDLAND AREA WEATHER ROUNDUP
NATIONAL WEATHER SERVICE MIDLAND TX
1100 PM CDT WED MAY 23 2018

...IN SOUTHWEST TEXAS AND SOUTHEAST NEW MEXICO...

CITY           SKY/WX    TMP DP  RH WIND       PRES   REMARKS
ALPINE         PTCLDY    63  56  76 E7        30.22R
ANDREWS        FAIR      67  59  75 N5        30.09F
ARTESIA        CLEAR     70  50  49 SE9       30.09R
BIG SPRING     CLOUDY    77  56  47 N7        30.12R
CARLSBAD       CLEAR     66  53  63 SE8       30.07R
DRYDEN           N/A     73  62  68 N16G23    30.09
FORT STOCKTON  LGT RAIN  68  56  65 S21G32    30.05R
GUAD PASS      CLEAR     65  46  50 NE24      30.17R
HOBBS          CLOUDY    64  54  68 E6        30.10R
LAMESA         LGT RAIN  68  63  83 N6        30.09F
MARFA          PTCLDY    64  54  69 MISG      30.16
MIDLAND AIRPK    N/A     76  56  49 E5        30.08F
MIDLAND INTL   MOCLDY    78  57  48 SE6       30.07
ODESSA         CLOUDY    74  55  51 E9        30.06
PECOS          CLOUDY    70  58  65 SE14      30.02F
PRESIDIO       FAIR      79  61  52 NE17G33   30.00R
SEMINOLE       CLOUDY    65  55  70 NE7       30.10F
SNYDER         CLOUDY    78  60  53 SE8       30.08R
WINK             N/A    N/A N/A N/A MISG        N/A
$$
...OTHER STATIONS IN TEXAS...

CITY           SKY/WX    TMP DP  RH WIND       PRES   REMARKS
ABILENE        CLOUDY    76  62  62 SE10      30.06R
AMARILLO       CLOUDY    66  58  75 NE21G26   30.11R
AUSTIN         PTCLDY    75  69  81 E3        30.04R
BROWNSVILLE    FAIR      80  76  87 E7        29.98R
CORPUS CHRISTI PTCLDY    78  76  93 SE7       30.00R
DALLAS FTW     PTCLDY    80  67  64 S10       30.03
DEL RIO        CLOUDY    83  66  56 E13       29.96R
EL PASO        CLEAR     78  47  33 E14       30.00R
HOUSTON INT    FAIR      73  71  93 SE6       30.03R
LUBBOCK        CLOUDY    68  57  68 W16       30.12R
SAN ANGELO     PTCLDY    75  61  61 S5        30.05R
SAN ANTONIO    MOCLDY    77  68  73 SE8       30.04R
WACO           CLEAR     77  68  73 S8        30.04R
WICHITA FALLS  CLOUDY    74  68  81 S14       30.08R
$$
...OTHER LOCATIONS IN NEW MEXICO...

CITY           SKY/WX    TMP DP  RH WIND       PRES   REMARKS
ALAMOGORDO     CLEAR     75  32  20 SE13      30.03R
ALBUQUERQUE    PTCLDY    71  17  12 SE9       30.04R
CANNON AFB     MOCLDY    67  50  52 S7        30.08R
CLOVIS         MOCLDY    66  49  54 S14       30.07R
HOLLOMAN AFB   CLEAR     77  42  27 SE15      30.04R
ROSWELL        CLEAR     66  54  65 S8        30.08R
RUIDOSO        CLEAR     59  48  67 SE16G28   30.27R
SANTA FE       PTCLDY    67  51  56 SE24G38   30.12R
TRUTH OR CONSE CLEAR     80  18  10 SW9       30.03R
TUCUMCARI      CLOUDY    63  58  83 NE13      30.09R
$$



USA.gov is the U.S. government's official web portal to all federal, state and local government web resources and services.